Orbital Elements at Epoch 2459000.5 (2020-May-31.0) TDB
Reference: JPL 19 (heliocentric ecliptic J2000)
Element | Value | Uncertainty (1-sigma) | Units |
e | .09919180328081578 | 4.0627e-08 | |
a | 2.807839518105063 | 1.5026e-08 | au |
q | 2.529324852981085 | 1.1164e-07 | au |
i | 3.968929844284094 | 5.8852e-06 | deg |
node | 14.71633726425767 | 5.1201e-05 | deg |
peri | 303.943557200743 | 5.8986e-05 | deg |
M | 15.64235803049502 | 2.734e-05 | deg |
tp | 2458925.828208436411 (2020-Mar-17.32820844) | 0.0001305 | TDB |
period | 1718.528939849454 4.71 | 1.3795e-05 3.777e-08 | d yr |
n | .2094814882963429 | 1.6816e-09 | deg/d |
Q | 3.086354183229042 | 1.6517e-08 | au |
|
| | Orbit Determination Parameters
Additional Information
|